Location: Les Chemineaux
(47.3024°N, 1.5104°E)
Time: 16:23:41
(UTC+00:00)

Cosmos 1833 Rocket - Pass Details

Date: 19 May 2025
Orbit: 831 x 839 km, 71.0° (Epoch: 13 June)

Event Time Altitude Azimuth Distance (km) Brightness Sun altitude
Rises 20:21:00 0° 184° (S) 3,375 5.5 -7.9°
Reaches altitude 10° 20:23:32 10° 178° (S) 2,446 4.7 -8.3°
Maximum altitude 20:28:48 43° 108° (ESE) 1,164 3.1 -8.9°
Drops below altitude 10° 20:34:06 10° 39° (NE) 2,463 5.2 -9.6°
Sets 20:36:38 0° 33° (NNE) 3,401 6.0 -9.9°
